Date,TemperatureHighF,TemperatureAvgF,TemperatureLowF,DewpointHighF,DewpointAvgF,DewpointLowF,HumidityHigh,HumidityAvg,HumidityLow,PressureMaxIn,PressureMinIn,WindSpeedMaxMPH,WindSpeedAvgMPH,GustSpeedMaxMPH,PrecipitationSumIn
2013-3-1,48.4,39.6,28.8,30.7,27.0,22.9,82,62,45,29.94,29.88,6,1,6,0.00
2013-3-2,47.3,39.3,30.9,36.0,29.3,18.9,86,68,48,29.97,29.85,7,1,7,0.01
2013-3-3,45.0,35.2,25.5,20.3,15.5,10.8,67,46,26,30.03,29.90,8,2,8,0.00
2013-3-4,52.5,37.9,24.6,19.6,13.1,7.8,62,39,21,30.14,30.02,6,1,6,0.01
2013-3-5,50.9,45.6,38.7,46.7,37.6,22.8,100,75,48,30.08,29.64,7,1,7,0.27
2013-3-6,48.9,41.9,35.4,42.8,25.9,17.4,100,55,35,30.08,29.64,11,4,11,0.01
2013-3-7,53.4,40.9,28.8,29.1,24.8,20.4,78,55,32,30.28,30.12,8,2,8,0.00
2013-3-8,55.4,42.9,29.1,25.9,21.1,15.5,69,44,21,30.33,30.22,12,2,12,0.00
2013-3-9,61.9,47.7,32.0,33.2,27.5,22.9,72,48,24,30.36,30.25,5,1,5,0.00
2013-3-10,68.2,52.6,36.7,39.4,35.0,31.4,86,55,29,30.31,30.20,6,1,6,0.00
2013-3-11,70.2,56.1,42.4,55.6,42.0,24.9,95,60,45,30.21,29.90,8,1,8,0.09
2013-3-12,58.3,57.5,56.1,58.0,57.2,55.3,100,99,95,29.90,29.78,5,2,5,0.74
2013-3-13,57.7,46.1,35.6,38.0,25.1,12.7,83,48,22,30.18,29.99,11,3,11,0.00
2013-3-14,52.7,40.8,29.7,21.8,15.5,10.7,57,37,20,30.29,30.16,9,2,9,0.00
2013-3-15,64.9,48.9,30.9,39.9,28.1,18.8,70,46,29,30.21,29.92,6,1,6,0.01
2013-3-16,78.8,65.9,53.6,47.9,44.2,39.2,61,47,32,29.92,29.75,8,2,8,0.00
2013-3-17,67.6,58.4,52.7,47.6,42.9,40.9,68,57,45,29.99,29.89,4,0,4,0.00
2013-3-18,67.6,42.2,39.0,46.7,41.0,38.8,100,96,47,30.17,29.89,9,2,9,0.39
2013-3-19,65.3,51.4,39.6,48.1,30.3,12.7,100,57,16,30.06,29.86,9,3,9,0.01
2013-3-20,57.4,49.5,42.8,26.0,13.4,5.4,41,24,19,30.13,29.81,6,2,6,0.00
2013-3-21,47.1,40.5,32.2,28.2,10.3,5.3,54,30,20,30.00,29.81,10,3,10,0.00
2013-3-22,51.6,36.1,24.8,24.5,13.9,6.0,59,41,23,30.10,29.99,5,1,5,0.00
2013-3-23,54.0,45.6,40.1,41.9,35.7,24.1,91,69,42,30.08,29.92,4,0,4,0.01
2013-3-24,43.2,40.4,37.6,42.4,40.0,37.3,100,98,91,29.96,29.58,8,2,8,0.66
2013-3-25,49.3,41.3,35.8,40.2,29.3,16.7,99,68,30,29.91,29.59,12,2,12,0.05
2013-3-26,48.0,40.3,30.6,27.6,24.3,21.7,75,54,38,30.18,29.88,8,2,8,0.00
2013-3-27,52.5,41.5,29.8,30.7,22.0,14.7,78,49,23,30.26,30.17,10,2,10,0.00
2013-3-28,57.2,44.0,30.7,24.7,19.9,13.5,67,41,20,30.31,30.20,8,2,8,0.00
2013-3-29,63.1,48.6,30.2,37.2,25.6,20.4,78,45,20,30.34,30.19,8,1,8,0.00
2013-3-30,66.6,55.2,45.5,49.5,43.3,36.5,100,67,41,30.24,30.08,6,1,6,0.09
2013-3-31,70.9,55.6,50.0,58.1,51.0,45.3,100,86,56,30.09,29.84,6,1,6,0.25